Regional Weather Roundup
Issued by NWS

Home | Current Version | Previous Version | Text Only | Print | Product List | Glossary On
Versions: 1 2 3 4 5 6 7 8 9 10 11 12 13 14 15 16 17 18 19 20 21 22 23 24 25 26 27 28 29 30 31 32 33 34 35 36 37 38 39 40 41 42 43 44 45 46 47 48 49 50
000
ASUS46 KSTO 300509
RWRCA

NORTHERN AND CENTRAL CA REGIONAL WEATHER ROUNDUP
NATIONAL WEATHER SERVICE SACRAMENTO CA
1000 PM PDT THU SEP 29 2016

NOTE: FAIR INDICATES FEW OR NO CLOUDS BELOW 12,000 FEET WITH NO
SIGNIFICANT WEATHER AND/OR OBSTRUCTIONS TO VISIBILITY.

CAZ001-003-300600-
NORTHWEST AREA

CITY           SKY/WX    TMP DP  RH WIND       PRES   REMARKS
CRESCENT CITY  CLOUDY    53  50  89 S7        30.10S
ARCATA         NOT AVBL
SHELTER COVE   NOT AVBL
UKIAH          CLEAR     58  36  43 CALM      30.05R
$$

CAZ006-505>513-300600-
BAY AREA

CITY           SKY/WX    TMP DP  RH WIND       PRES   REMARKS
SANTA ROSA     PTCLDY    51  50  96 SE6       30.06R
SAN RAFAEL     N/A       57  MM  MM MISG
NAPA           CLEAR     53  49  86 W7        30.06R
CONCORD        CLEAR     59  47  64 S9        30.05R
OAKLAND CITY   N/A       57  MM  MM MISG
OAKLAND        CLOUDY    57  53  86 W16       30.09S
SAN FRAN CITY  N/A       53  MM  96 MISG
SAN FRAN ARPT  CLOUDY    55  51  86 W20       30.09S
LIVERMORE      CLEAR     57  48  72 W10       30.05S
HAYWARD        CLOUDY    57  50  77 N6        30.09R
REDWOOD CITY   N/A       MM  MM  MM MISG
MOFFETT ARPT   CLEAR     58  52  80 N9        30.09S
SAN JOSE ARPT  PTCLDY    58  52  80 NW10      30.08S
$$
CAZ034-037-514>518-300600-
CENTRAL COAST

CITY           SKY/WX    TMP DP  RH WIND       PRES   REMARKS
WATSONVILLE    CLEAR     53  52  96 CALM      30.09R
SALINAS        CLEAR     55  51  86 NW8       30.07S
MONTEREY       CLEAR     54  51  90 W5        30.09S
PT PIEDRAS BLS NOT AVBL
SAN LUIS OBISP CLEAR     58  55  90 CALM      30.06R
SANTA MARIA    FOG       55  55 100 CALM      30.07S VSB 3/4
$$
CAZ015-016-300600-
NORTHERN SACRAMENTO VALLEY

CITY           SKY/WX    TMP DP  RH WIND       PRES   REMARKS
REDDING        CLEAR     72  52  49 CALM      29.95R
RED BLUFF      CLEAR     74  50  42 S9        29.95R
OROVILLE       CLEAR     71  44  37 S7        29.98R
$$
CAZ016>018-300600-
SOUTHERN SACRAMENTO VALLEY

CITY           SKY/WX    TMP DP  RH WIND       PRES   REMARKS
AUBURN         CLEAR     72  34  25 SE8       30.06S
BEALE AFB      CLEAR     69  37  30 S9        29.95F
LINCOLN        FAIR      70  37  30 SE9       29.98S
MARYSVILLE     CLEAR     67  47  48 S13       29.98R
SAC INTL ARPT  CLEAR     61  47  59 S13       29.98R
MATHER AIRPORT CLEAR     59  41  51 SE7       30.01R
DOWNTOWN SAC   N/A       65  MM  MM MISG
SAC EXEC ARPT  CLEAR     62  47  57 S7        30.00R
VACAVILLE      CLEAR     64  43  46 SW10      29.99R
TRAVIS AFB     CLEAR     56  49  77 SW24      29.99R
$$
CAZ019>021-300600-
SAN JOAQUIN VALLEY

CITY           SKY/WX    TMP DP  RH WIND       PRES   REMARKS
STOCKTON       CLEAR     69  29  22 NW8       30.01S
MODESTO        CLEAR     72  40  31 N5        30.01R
MERCED         CLEAR     73  41  31 N9        30.00R
LEMOORE        CLEAR     77  43  29 NW15      30.00R
FRESNO         CLEAR     79  47  32 NW10      29.99R
HANFORD        CLEAR     78  47  33 NW7       29.99R
PORTERVILLE    CLEAR     75  50  41 S5        30.00R
BAKERSFIELD    CLEAR     82  43  25 N12       30.00R
$$
CAZ011-012-071-300600-
NORTHERN MOUNTAINS

CITY           SKY/WX    TMP DP  RH WIND       PRES   REMARKS
YREKA          CLEAR     61  36  39 NE7       30.03R
MOUNT SHASTA   CLEAR     64  42  44 CALM      30.08S
ALTURAS        CLEAR     57  35  43 S3        30.12R
$$
CAZ011-012-071-300600-
SIERRA NEVADA MTNS

CITY           SKY/WX    TMP DP  RH WIND       PRES   REMARKS
BLUE CANYON    CLEAR     59  36  42 SE3       30.25S
TRUCKEE        CLEAR     45  32  61 SW5       30.27S
TAHOE VLY ARPT CLEAR     53  36  52 CALM      30.28R
MAMMOTH LAKES  FAIR      52  33  48 CALM      30.35S
$$



USA.gov is the U.S. government's official web portal to all federal, state and local government web resources and services.